EUTELSAT 5 WEST B

Last updated on Wed Sep 09 2026 00:03:02 GMT+0000 (Coordinated Universal Time)

1 44624U 19067A 26251.34766934 -.00000063 00000+0 00000+0 0 9999 2 44624 0.0871 314.4361 0003152 218.1803 294.9608 1.00272188 25266
UTC large
Height (km)
Speed (km/s)
/
Latitude / Longitude
Inclination (degrees)
Orbital Period (minutes)
Azimuth
Elevation
Range (km)
Doppler Factor

Next 0 passes for location: London (51.5072 / 0.1276)

No passes found over London.
EUTELSAT 5 WEST B